This is the latest recevied weather packets stored in our database for station/object LA5NNA. If no packets are shown the sender has not sent any weather packets the latest 10 day(s).
| Time | Temp. | Humidity | Pressure | Rain* | Wind** | Luminosity | Snow |
|---|---|---|---|---|---|---|---|
| 1777569007 | 8.33° C | 83% | 1027.9 hPa | 0 mm | - | 0 W/m² | - |
| 1777560907 | 8.33° C | 82% | 1028.7 hPa | 0 mm | - | 0 W/m² | - |
| 1777560007 | 8.89° C | 82% | 1028.6 hPa | 0 mm | - | 0 W/m² | - |
| 1777557907 | 8.89° C | 82% | 1029.1 hPa | 0 mm | - | 0 W/m² | - |
| 1777556707 | 9.44° C | 83% | 1029.1 hPa | 0 mm | - | 0 W/m² | - |
| 1777550410 | 8.33° C | 87% | 1029.5 hPa | 0 mm | - | 0 W/m² | - |
| 1777549207 | 8.33° C | 88% | 1029.7 hPa | 0 mm | - | 0 W/m² | - |
| 1777545010 | 7.22° C | 89% | 1029.9 hPa | 0 mm | - | 0 W/m² | - |
| 1777544707 | 7.22° C | 89% | 1029.9 hPa | 0 mm | - | 0 W/m² | - |
| 1777544407 | 7.22° C | 90% | 1029.8 hPa | 0 mm | - | 0 W/m² | - |
| 1777543210 | 7.22° C | 90% | 1029.6 hPa | 0 mm | - | 0 W/m² | - |
| 1777542606 | 6.67° C | 90% | 1029.6 hPa | 0 mm | - | 0 W/m² | - |
| 1777540507 | 6.67° C | 90% | 1029.6 hPa | 0 mm | - | 0 W/m² | - |
| 1777539007 | 6.67° C | 90% | 1029.6 hPa | 0 mm | - | 0 W/m² | - |
| 1777536306 | 6.67° C | 90% | 1029.6 hPa | 0 mm | - | 0 W/m² | - |
| 1777536010 | 6.67° C | 89% | 1029.6 hPa | 0 mm | - | 0 W/m² | - |
| 1777535706 | 6.67° C | 89% | 1029.5 hPa | 0 mm | - | 0 W/m² | - |
| 1777535406 | 6.67° C | 89% | 1029.6 hPa | 0 mm | - | 0 W/m² | - |
| 1777535108 | 6.67° C | 89% | 1029.7 hPa | 0 mm | - | 0 W/m² | - |
| 1777534808 | 6.67° C | 89% | 1029.6 hPa | 0 mm | - | 0 W/m² | - |
| 1777532411 | 6.11° C | 89% | 1029.6 hPa | 0 mm | - | 0 W/m² | - |
| 1777531808 | 6.11° C | 89% | 1029.6 hPa | 0 mm | - | 0 W/m² | - |
| 1777530908 | 6.11° C | 89% | 1029.6 hPa | 0 mm | - | 0 W/m² | - |
| 1777530008 | 6.11° C | 89% | 1029.5 hPa | 0 mm | - | 0 W/m² | - |
| 1777527608 | 6.11° C | 89% | 1029.3 hPa | 0 mm | - | 0 W/m² | - |
* Rain latest hour (hover to see other rain measurements)
** Current wind speed in m/s (hover to see current wind gust speed)